#timestamp,LO_Frequency,Hit,StdDev 
1546408815.1,286047000.7,N
1546408816.0,286047000.7,N
1546408835.8,286046998.1,N
1546408855.7,286047002.1,N
1546408875.5,286047000.5,N
1546408895.3,286046999.7,N
1546408915.2,286047001.6,N
1546408935.0,286047002.0,N
1546408935.9,286047002.0,N
1546408955.7,286047002.5,N
1546408975.6,286046999.8,N
1546408995.4,286046999.9,N
1546409015.3,286047000.0,N
1546409035.1,286047000.6,N
1546409055.8,286046998.3,N
1546409075.7,286046998.2,N
1546409095.5,286047000.6,N
1546409115.4,286046998.7,N
1546409135.2,286047001.1,N
1546409155.0,286046998.5,N
1546409155.9,286046998.5,N
1546409175.8,286047000.3,N
1546409195.6,286047000.1,N
1546409215.5,286046999.7,N
1546409235.3,286047000.8,N
1546409255.1,286046999.8,N
1546409275.9,286047002.2,N
1546409295.7,286047001.9,N
1546409315.5,286047002.5,N
1546409335.4,286047001.0,N
1546409355.2,286046998.4,N
1546409375.1,286047000.7,N
1546409376.0,286047000.7,N
1546409395.8,286047000.1,N
1546409415.6,286046998.2,N
1546409435.5,286046999.8,N
1546409455.3,286047001.3,N
1546409475.2,286047003.2,N
1546409495.9,286047003.6,N
1546409515.7,286047004.2,N
1546409535.6,286047002.0,N
1546409555.4,286047004.4,N
1546409575.2,286047000.1,N
1546409595.1,286047001.1,N
1546409596.0,286047001.1,N
1546409615.8,286047001.1,N
1546409635.7,286046998.2,N
1546409655.5,286047001.2,N
1546409675.3,286047000.0,N
1546409695.2,286047001.0,N
1546409715.0,286047000.5,N
1546409715.9,286047000.5,N
1546409735.7,286047000.7,N
1546409755.6,286047000.7,N
1546409775.4,286047000.3,N
1546409795.3,286047000.7,N
1546409815.1,286047000.9,N
1546409835.8,286047000.1,N
1546409855.7,286047000.5,N
1546409875.5,286047001.2,N
1546409895.4,286047002.8,N
1546409915.2,286047001.3,N
1546409935.0,286047003.7,N
1546409935.9,286047003.7,N
1546409955.8,286047001.9,N
1546409975.6,286047001.9,N
1546409995.4,286047001.7,N
1546410015.3,286047001.6,N
1546410035.1,286047001.5,N
1546410055.9,286046999.7,N
1546410075.7,286047002.0,N
1546410095.5,286047000.6,N
1546410115.4,286047000.0,N
1546410135.2,286047002.2,N
1546410155.1,286047002.5,N
1546410156.0,286047002.5,N
1546410175.8,286047002.2,N
1546410195.6,286047003.2,Y
1546410215.5,286046999.8,P
1546410235.3,286047002.0,N
1546410255.2,286047000.6,N
1546410275.9,286047001.0,N
1546410295.7,286046998.7,N
1546410315.6,286046998.8,N
1546410335.4,286046998.3,N
1546410355.3,286046998.7,N
1546410375.1,286046998.2,N
1546410376.0,286046998.2,N
1546410395.8,286046998.5,N
1546410415.7,286047001.2,N
1546410435.5,286047001.2,N
1546410455.3,286047000.6,N
1546410475.2,286046999.7,N
1546410495.0,286046998.1,N
1546410495.9,286046998.1,N
1546410515.8,286047000.6,N
1546410535.6,286047001.8,N
1546410555.4,286046999.8,N
1546410575.3,286047000.9,N
1546410595.1,286046999.9,N
1546410615.9,286047001.2,N
1546410635.7,286047001.0,N
1546410655.5,286046998.6,N
1546410675.4,286047000.4,N
1546410695.2,286047000.7,N
1546410715.0,286047000.6,N
1546410715.9,286047000.6,N
1546410735.8,286047000.1,N
1546410755.6,286047000.7,N
1546410775.5,286047002.3,N
1546410795.3,286047000.2,N
1546410815.1,286047003.7,Y
1546410835.1,286047006.0,P
1546410836.0,286047006.0,N
1546410855.8,286047003.4,N
1546410875.6,286047003.9,N
1546410895.5,286047001.3,N
1546410915.3,286047001.8,N
1546410935.1,286047002.2,N
1546410955.9,286047002.2,N
1546410975.7,286047002.7,N
1546410995.6,286047000.1,N
1546411015.4,286047000.4,N
1546411035.2,286047000.8,N
1546411055.1,286047001.3,N
1546411056.0,286047001.3,N
1546411075.8,286047001.5,N
1546411095.7,286047001.5,N
1546411115.5,286047000.5,N
1546411135.3,286047000.9,N
1546411155.2,286046999.7,N
1546411175.0,286047000.2,N
1546411175.9,286047000.2,N
1546411195.8,286047002.4,N
1546411215.6,286047000.4,N
1546411235.4,286047000.5,N
1546411255.3,286047000.7,N
1546411275.1,286047000.1,N
1546411295.8,286047000.2,N
1546411315.7,286046999.7,N
1546411335.5,286047004.2,N
1546411355.4,286047002.0,N
1546411375.2,286047002.8,N
1546411395.0,286047002.8,N
1546411395.9,286047002.8,N
1546411415.8,286047002.7,N
1546411435.6,286047001.9,N
1546411455.5,286046999.7,N
1546411475.3,286047002.2,N
1546411495.1,286047002.7,N
1546411515.9,286047001.5,N
1546411535.7,286047001.6,N
1546411555.5,286047002.3,N
1546411575.4,286047002.3,N
1546411595.2,286047001.9,N
1546411615.1,286047002.7,N
1546411616.0,286047002.7,N
1546411635.8,286046999.7,N
1546411655.6,286046999.7,N
1546411675.5,286047002.2,N
1546411695.3,286047002.3,N
1546411715.1,286047002.4,N
1546411735.9,286047002.7,N
1546411755.7,286047001.6,N
1546411775.6,286047000.1,N
1546411795.4,286047002.3,N
1546411815.2,286047002.2,N
1546411835.1,286047003.3,N
1546411836.0,286047003.3,N
1546411855.8,286047005.8,Y
1546411875.7,286047001.8,P
1546411895.5,286047002.0,P
1546411915.3,286047002.5,P
1546411935.2,286047002.0,Y
1546411955.0,286046997.2,P
1546411955.9,286046997.2,N
1546411975.8,286046997.7,N
1546411995.6,286046997.6,N
1546412015.4,286046997.4,N
1546412035.3,286046997.7,N
1546412055.1,286046995.8,N
1546412075.8,286046995.7,N
1546412095.7,286046997.0,N
1546412115.5,286046997.4,N
1546412135.4,286046997.0,N
1546412155.2,286046997.6,N
1546412175.0,286046997.8,N
1546412175.9,286046997.8,N
1546412195.8,286046997.9,N
1546412215.6,286046998.0,N
1546412235.4,286046997.8,N
1546412255.3,286046997.5,N
1546412275.1,286046997.6,N
1546412295.9,286046997.6,N
1546412315.7,286046995.4,Y
1546412335.5,286046996.8,P
1546412355.4,286046997.6,P
1546412375.2,286046999.6,N
1546412395.0,286046998.5,N
1546412395.9,286046998.5,N
